Theta_e
352 358 364 366 364 362 361 361 364 365 363 365 365 365 362 362 361 361 362 361 361 360 359 360 360 360 360 360 361 360 360 359 359 359 359 359 359 358 357 354 354 350 354
355 359 365 365 364 362 362 361 363 364 364 365 364 364 362 362 362 362 362 360 360 360 360 360 359 360 360 359 360 360 360 359 359 360 360 360 359 357 358 357 353 351 353
355 359 361 363 363 364 365 362 362 364 362 363 365 364 363 363 361 361 361 361 360 361 360 359 359 359 359 358 358 359 358 358 359 357 355 351 352 355 358 357 358 358 357
357 357 358 363 364 365 365 364 363 363 362 363 363 363 363 362 361 361 361 360 360 360 358 356 358 359 357 357 360 359 359 357 358 358 351 347 347 353 355 358 359 356 355
358 357 360 366 366 363 364 364 364 363 363 362 361 361 362 362 361 361 361 360 361 359 357 355 358 359 358 359 357 360 359 358 357 354 354 351 346 357 354 357 356 353 348
357 358 365 367 365 364 363 364 364 363 362 363 361 361 361 361 361 361 361 361 360 359 356 356 357 359 357 359 358 358 356 356 354 354 355 354 349 355 358 358 354 355 355
358 358 362 368 366 365 364 363 364 364 361 359 360 359 360 362 361 361 361 361 361 360 357 359 358 358 358 358 358 358 357 353 347 348 352 353 356 357 357 358 357 357 357
356 357 362 367 367 363 363 362 362 362 362 360 361 361 361 360 361 360 361 361 360 359 356 359 360 358 357 356 355 356 357 358 351 351 349 354 355 356 353 357 356 355 351
359 359 363 364 364 365 362 362 362 362 362 361 362 362 361 361 360 361 360 361 360 358 356 359 359 358 356 355 356 356 355 355 355 354 352 349 355 356 354 355 357 357 354
359 361 363 365 366 362 362 362 364 365 363 362 361 362 363 362 360 362 362 363 361 356 357 359 359 359 358 356 355 354 353 355 351 353 351 347 356 358 358 357 354 354 352
356 359 362 363 365 364 364 362 364 363 363 362 361 361 361 359 361 362 359 361 361 356 357 358 358 359 358 357 355 354 354 356 351 352 352 353 355 358 360 357 355 354 357
351 356 360 360 362 363 362 364 363 361 361 360 360 362 359 361 363 360 359 360 360 360 356 360 361 360 358 351 352 354 354 354 355 355 354 353 355 358 361 360 358 355 355
351 353 356 357 362 361 360 360 361 360 360 361 364 363 362 360 361 359 358 357 360 359 357 357 358 357 354 352 351 351 352 353 353 355 356 356 356 355 359 362 359 355 354
348 351 355 356 359 360 360 358 359 359 360 359 361 364 360 358 360 359 356 358 361 359 359 357 354 357 357 355 350 351 352 351 352 353 354 354 357 358 357 362 361 357 356
345 348 354 357 358 359 360 359 361 360 359 359 360 362 360 357 357 357 356 355 358 358 361 359 358 357 355 354 353 353 351 352 353 355 354 354 359 360 360 361 361 359 358
345 345 352 354 357 359 359 361 359 358 358 359 358 359 361 358 357 354 356 357 356 358 359 358 359 357 355 355 355 355 354 353 356 357 355 356 357 361 360 360 360 360 359
345 344 348 352 355 356 356 357 356 358 358 358 357 360 359 359 359 357 355 361 362 361 360 360 359 358 355 356 355 353 353 354 356 358 359 358 358 360 360 360 360 360 360
345 342 346 349 352 355 355 356 355 355 357 356 357 356 358 359 359 358 355 356 363 362 362 357 355 353 353 355 355 354 353 358 358 358 358 358 358 357 360 360 359 358 359
347 343 341 348 350 353 355 355 357 358 357 358 360 356 355 355 357 357 357 358 362 362 358 360 358 355 352 356 354 355 357 355 356 355 357 358 359 358 357 359 359 359 360
347 344 342 342 348 352 353 355 354 354 355 356 356 356 359 357 351 352 356 356 360 355 359 355 355 358 357 357 354 351 358 354 355 355 355 356 358 359 360 361 360 358 359
346 345 343 343 348 348 348 348 347 345 348 351 353 357 357 358 358 357 353 358 354 355 355 353 354 353 354 356 353 352 354 354 353 353 354 354 356 358 360 360 361 360 359
347 346 345 345 349 348 347 348 347 348 349 350 352 355 357 356 358 355 354 355 354 349 347 344 346 345 352 358 350 348 337 341 347 350 352 353 354 355 355 358 359 360 359
349 349 348 349 350 351 352 350 350 352 352 349 351 351 355 357 357 357 356 355 355 353 350 352 349 342 339 348 353 349 339 331 340 347 349 349 353 353 354 357 358 358 359
351 353 352 352 353 353 354 351 350 346 345 349 350 351 353 356 356 357 356 352 354 353 352 352 348 343 341 336 344 348 347 344 333 332 345 347 349 351 354 354 354 354 355
352 353 354 354 354 355 353 353 350 349 349 351 352 354 356 358 357 355 356 355 355 353 353 352 350 347 340 339 339 349 348 348 344 337 331 337 344 348 350 351 351 351 354
353 353 354 354 354 355 353 353 351 350 350 348 351 350 351 351 353 355 354 353 353 352 350 349 348 344 339 339 342 345 347 343 342 340 335 337 338 342 348 349 347 347 348
Wind_Speed
14 16 19 18 17 16 14 15 14 15 16 17 18 17 16 15 15 14 13 12 12 10 10 11 13 11 13 13 13 15 15 14 13 14 14 14 13 12 14 11 10 11 12
20 19 19 18 18 17 16 14 15 14 16 16 16 16 16 15 14 14 13 12 11 11 11 13 12 11 11 14 12 14 14 14 13 14 15 15 13 12 12 12 7 12 11
20 19 19 18 18 18 17 15 15 14 15 15 15 15 14 13 13 15 13 12 12 12 13 12 11 12 12 12 13 13 12 12 11 13 11 8 10 10 10 11 11 11 11
19 18 18 18 18 17 17 17 16 16 15 15 15 14 14 13 13 12 13 11 12 13 13 11 10 13 12 12 12 12 13 11 10 11 7 8 9 11 9 10 11 10 9
17 18 17 19 19 19 17 17 16 15 15 15 14 12 14 14 13 12 14 13 13 12 13 12 11 11 12 12 11 11 11 10 10 7 7 6 5 8 12 10 10 9 6
17 17 18 19 19 19 19 17 16 15 14 14 15 12 12 12 12 13 12 12 13 12 13 13 11 12 12 11 11 11 9 10 9 7 6 8 5 10 10 8 9 10 9
17 16 18 19 19 17 17 17 16 15 15 15 14 13 12 12 12 12 11 12 12 12 12 11 12 11 11 10 10 9 9 9 6 6 5 5 5 9 8 9 9 8 8
16 17 16 17 18 18 18 18 17 17 16 15 16 14 12 12 11 12 12 11 13 11 12 10 13 12 11 10 9 8 8 9 7 5 5 5 5 5 8 7 7 9 7
15 13 13 15 17 18 18 17 16 16 15 14 14 13 13 13 11 12 12 12 12 11 11 10 12 11 10 8 7 6 3 5 6 5 6 4 6 8 9 8 6 8 7
14 12 11 12 12 11 11 17 16 15 15 14 13 13 12 13 12 12 10 10 12 11 12 11 11 10 9 7 6 5 2 6 6 6 5 4 7 9 8 7 7 7 8
12 14 13 14 11 11 12 13 14 16 15 14 12 12 10 8 9 12 9 11 10 11 11 11 11 10 9 8 6 5 3 2 5 4 3 8 10 10 11 8 8 8 9
15 14 12 14 14 12 9 9 11 11 10 9 9 10 7 7 7 7 9 11 11 10 11 10 11 10 9 6 6 7 4 3 4 4 4 9 12 12 12 9 10 11 11
16 12 12 11 12 13 11 9 6 6 6 6 8 8 7 6 6 6 5 6 7 10 7 9 8 7 8 6 5 5 5 5 4 4 2 8 13 14 14 11 12 13 12
15 15 13 12 12 12 9 9 9 8 7 6 7 8 6 5 6 6 5 6 5 6 6 6 5 6 7 7 7 7 7 6 4 4 4 6 11 15 16 14 14 14 14
14 14 14 13 13 12 12 9 9 8 7 9 8 8 6 6 6 5 5 6 6 6 5 6 6 6 6 7 7 7 7 7 7 5 4 5 9 13 16 15 15 16 15
15 15 15 14 14 12 11 11 9 8 8 8 8 8 9 7 6 6 6 6 6 6 6 6 6 6 6 7 8 8 8 8 7 7 6 6 8 12 15 15 14 16 15
15 14 15 15 15 14 13 11 9 9 8 7 6 9 10 9 8 7 7 6 6 6 7 6 6 6 6 6 8 8 8 9 8 8 7 6 6 11 15 15 14 14 16
14 16 14 13 15 14 12 10 8 8 8 8 8 7 9 9 9 8 7 7 6 5 6 6 6 7 7 7 7 7 7 7 9 7 7 6 7 7 9 14 15 15 15
16 16 15 15 15 15 12 10 10 10 9 8 7 8 8 9 9 8 7 8 7 5 6 6 6 7 7 7 7 7 7 7 7 7 9 8 9 8 7 8 11 15 16
15 15 15 13 14 14 10 8 7 7 8 8 8 8 11 8 6 5 6 7 6 6 6 7 9 8 7 7 6 7 5 6 6 7 8 7 8 8 8 9 7 9 13
15 15 15 15 14 11 10 10 9 9 9 9 8 10 10 10 10 10 7 10 5 7 9 7 6 6 7 7 3 6 6 8 8 8 7 8 8 8 7 6 6 6 5
17 16 16 16 15 12 10 9 7 8 8 9 8 9 10 10 10 9 8 8 8 6 4 4 5 2 4 6 5 4 5 7 8 8 7 7 8 6 7 8 7 7 6
18 19 17 17 16 14 12 9 6 6 5 8 9 9 9 11 10 10 9 7 8 7 8 9 10 7 2 2 9 4 3 7 1 4 7 6 7 6 6 6 6 5 5
20 17 17 17 17 14 14 12 13 9 8 7 9 8 8 10 11 10 7 6 8 7 9 9 8 6 5 5 4 8 5 2 4 4 4 5 5 7 7 5 5 4 4
19 19 18 18 17 15 15 13 11 10 7 6 6 9 8 7 9 9 10 9 8 7 9 10 10 11 7 6 7 3 7 5 4 7 9 6 5 6 6 6 4 3 3
18 18 18 19 17 16 15 15 14 12 10 7 7 7 7 6 7 9 9 8 8 9 10 8 8 11 7 4 2 6 5 4 6 7 9 10 10 7 5 5 5 4 3
Wind_Direction
160 156 158 150 148 143 137 134 129 123 119 122 129 131 139 141 144 150 143 148 131 127 122 117 117 126 122 119 118 132 123 121 121 120 120 123 116 114 112 109 132 116 119
155 156 161 149 152 151 142 138 132 128 127 127 126 131 138 143 150 140 143 137 139 131 128 121 122 126 124 123 122 122 125 131 127 125 118 114 115 117 121 126 137 114 129
152 154 156 155 157 152 146 144 141 135 134 132 135 138 140 144 143 147 150 142 131 125 120 119 124 134 126 128 135 129 131 130 128 135 134 125 124 124 123 132 125 125 126
151 154 157 158 157 155 150 146 147 144 144 142 142 148 146 146 147 158 145 147 133 130 122 129 128 138 132 136 133 139 135 138 126 124 147 128 130 134 136 123 121 120 121
155 156 155 159 158 158 155 150 148 146 147 146 148 148 144 144 146 150 146 150 131 133 132 136 133 130 135 140 135 130 131 128 123 158 140 123 131 128 148 144 139 134 145
158 159 153 158 161 163 159 155 150 150 152 150 149 152 151 146 150 144 148 145 138 146 139 140 142 139 137 134 136 137 141 139 148 136 145 126 157 134 148 151 143 134 136
161 162 161 162 162 164 162 160 156 157 155 154 151 160 160 152 150 144 144 139 138 139 143 140 147 136 140 145 145 149 157 153 151 148 150 146 144 161 160 160 144 145 151
161 164 163 167 164 167 166 165 164 162 161 161 161 161 166 160 152 150 150 148 141 144 147 155 146 142 149 150 154 166 182 185 188 155 162 168 111 190 177 180 168 159 167
161 164 170 171 172 170 172 169 170 169 166 165 166 164 172 165 162 161 153 147 148 144 152 158 143 152 156 158 165 166 162 190 208 191 190 189 168 194 195 189 185 168 179
165 169 165 173 178 169 176 174 172 176 171 168 173 171 174 165 169 165 153 155 153 156 161 156 153 160 166 171 178 182 183 166 178 158 182 178 181 213 222 187 206 201 201
177 181 176 179 176 175 177 179 175 178 177 174 177 175 177 171 180 166 164 158 162 160 167 164 166 168 174 178 189 201 224 196 178 182 189 145 198 221 236 208 215 221 211
185 184 183 179 175 171 180 177 181 182 183 184 184 178 181 166 176 177 170 173 172 169 174 178 174 174 186 191 194 210 223 204 206 197 217 177 207 218 226 212 209 221 227
185 187 181 178 175 178 175 173 181 185 186 180 184 184 173 165 168 183 168 180 178 185 185 187 184 192 186 202 205 212 215 227 229 231 234 218 215 217 223 218 210 222 226
186 191 185 181 176 184 177 184 181 184 180 188 185 183 178 178 177 177 179 184 201 193 182 197 195 194 203 205 215 219 226 241 232 252 239 244 223 213 219 222 215 221 225
189 189 188 183 184 183 186 183 186 184 188 190 187 186 196 193 191 189 193 198 195 198 195 198 201 209 208 219 219 227 234 239 244 252 261 225 242 217 217 224 220 223 229
193 194 185 191 188 187 193 191 187 193 186 192 195 190 193 202 203 204 210 217 203 209 200 207 211 209 219 228 226 229 235 239 241 255 256 251 240 228 220 226 229 222 229
196 192 192 190 190 192 194 195 197 195 199 198 202 202 199 200 203 219 223 225 218 208 211 209 213 218 229 221 235 237 236 237 244 253 257 260 259 227 222 224 232 235 228
194 193 191 187 191 194 195 198 202 202 209 209 210 203 213 212 213 212 225 233 220 201 198 209 213 217 226 228 233 235 236 244 245 244 247 250 250 267 215 223 228 235 238
197 191 187 188 191 193 197 202 205 205 211 210 218 215 207 211 217 227 230 233 228 217 214 209 216 224 229 226 235 237 230 238 239 238 243 246 245 249 252 221 227 237 238
195 191 186 187 193 190 190 198 206 214 218 220 214 212 210 206 199 208 243 249 229 232 225 224 232 222 232 241 240 247 243 244 250 244 247 246 246 243 246 251 250 245 243
192 189 188 186 187 184 188 191 200 211 209 211 215 214 210 215 209 215 222 229 227 226 229 226 242 260 233 241 247 244 247 242 241 242 242 244 241 239 243 246 246 252 253
191 191 188 192 185 189 190 191 203 208 214 211 212 210 210 206 209 216 231 234 209 210 210 195 193 178 260 198 230 241 256 230 228 231 234 241 243 244 244 241 251 256 265
194 192 192 189 189 191 190 182 190 201 211 205 209 210 208 212 208 215 223 231 218 226 230 213 200 179 174 244 243 236 204 237 267 182 217 237 250 250 258 246 239 248 262
195 189 190 190 189 188 179 187 195 201 203 212 207 205 206 213 217 208 216 212 222 221 232 229 212 200 163 206 248 240 233 275 251 250 195 232 235 245 240 234 233 232 248
188 186 187 188 183 181 183 191 193 204 204 189 192 197 201 202 222 208 202 203 218 225 231 228 222 209 197 192 215 212 221 231 245 269 276 250 233 238 239 230 231 244 271
187 183 187 182 183 177 185 190 199 202 196 190 192 193 186 196 195 196 198 201 215 226 225 221 213 197 180 190 228 239 228 217 231 238 259 266 271 256 242 229 226 226 234